www.pogodaiklimat.ru

ПОГОДА в Норт-Платте, NE

  • Прогноз погоды в Норт-Платте
  • Монитор погоды в Норт-Платте
  • Климат в Норт-Платте

АРХИВ ПОГОДЫ в Норт-Платте

Время (UTC), дата Ветер
(напр.,м/с)
 
Видим.   Явления Облачность Т
(С)
Тd
(С)
f
(%)
Тe
(С)
Тes
(С)
Комфортность

P
(гПа)

Po
(гПа)
Тmin
(С)
Tmax
(С)
R
(мм)
SD
(см)
10:45 19.08 ЮВ  6 км  дымка  10/10 60 м  +18.9  +18.3  96  +20  +20      917.9         
10:53 19.08 ЮВ  6 км  дымка  10/10 60 м  +18.9  +18.3  96  +20  +20    1013.4  917.9  +17.8  +18.9     
11:44 19.08 ЮВ  4 км  дымка  10/10 60 м  +18.9  +18.3  96  +21  +21  комфорт    917.9         
11:53 19.08 ЮВ  3 км  дымка  10/10 60 м  +18.9  +18.3  96  +20  +20    1013.4  917.6         
12:03 19.08 ЮВ  2 км  дымка  10/10 60 м  +18.9  +18.3  96  +20  +20      917.9         
12:12 19.08 ЮВ  2 км  дымка  10/10 60 м  +18.9  +18.3  96  +20  +20      917.9         
12:32 19.08 ЮВ  1 км  дымка  ?/?  +18.9  +18.3  96  +20  +20      917.9         
12:39 19.08 ЮВ  2 км  дымка  ?/?  +18.9  +18.3  96  +20  +20      917.9         
12:53 19.08 ЮВ  2 км  дымка  10/10 60 м  +19.4  +18.9  97  +22  +22  комфорт  1013.6  917.6         
13:08 19.08 ЮВ  3 км  дымка  10/10 30 м  +19.4  +18.3  93  +22  +22  комфорт    917.9         
13:30 19.08 Ю  5 км  дымка  10/10 60 м  +19.4  +18.9  97  +22  +22  комфорт    917.6         
13:53 19.08 Ю  8 км  дымка  10/10 60 м  +20.0  +19.4  96  +23  +23  комфорт  1013.6  917.6         
14:53 19.08 Ю  16 км    10/10 150 м  +22.2  +20.6  91  +29  +29  очень
душно 
1013.5  917.6         
15:53 19.08 Ю  16 км    10/10 270 м  +24.4  +21.1  82  +31  +31  очень
душно 
1013.0  917.3         
16:39 19.08 ЮЗ  6
{8} 
16 км    10/10 300 м  +25.6  +21.7  79  +33  +33  очень
душно 
  917.6         
16:53 19.08 Ю  16 км    10/10 330 м  +26.1  +21.7  77  +34  +34  очень
душно 
1012.7  917.3  +18.3  +26.1     
17:53 19.08 Ю  16 км    8/8 390 м  +27.2  +22.2  74  +35  +37  очень
душно 
1011.9  916.7         
18:22 19.08 Ю  16 км    8/8 450 м  +27.2  +22.2  74  +35  +37  очень
душно 
  916.7         
18:53 19.08 Ю  16 км    5/5 510 м  +27.8  +22.8  74  +37  +40  очень
душно 
1011.5  916.4         
19:32 19.08 З  16 км    8/8 660 м  +27.8  +22.2  72  +36  +39  очень
душно 
  917.0         
19:53 19.08 З  16 км    8/8 690 м  +28.9  +23.3  72  +39  +41  очень
душно 
1011.5  916.4         
20:14 19.08 ЮЗ  16 км    2/2 810 м  +28.3  +22.8  72  +38  +43  очень
душно 
  916.1         
20:53 19.08 ЮЗ  16 км    5/5 960 м  +28.9  +22.8  70  +38  +43  очень
душно 
1011.4  916.4         
21:53 19.08 ЮЗ  16 км    ясно  +30.0  +22.2  63  +39  +45  очень
душно 
1011.1  916.1         
22:53 19.08 Ю  16 км    ясно  +30.0  +22.8  65  +40  +43  очень
душно 
1010.8  915.8  +25.0  +30.0     
23:53 19.08 Ю  16 км    ясно  +28.3  +23.3  74  +38  +40  очень
душно 
1010.9  916.1         
00:53 20.08 ЮВ  16 км    ясно  +25.0  +22.2  84  +32  +33  очень
душно 
1011.2  916.1         
01:53 20.08 ЮВ  16 км    ясно  +22.8  +21.1  90  +30  +30  очень
душно 
1011.9  916.4         
02:53 20.08 Ю  16 км    н/о  +23.9  +22.2  90  +31  +31  очень
душно 
1011.7  916.7         
03:53 20.08 В  14 км    ясно  +22.2  +21.1  93  +29  +29  очень
душно 
1011.7  916.7         
04:53 20.08 ЮВ  14 км    ясно  +22.2  +21.1  93  +29  +29  очень
душно 
1011.5  916.7  +22.2  +30.0     
05:53 20.08 В  8 км  дымка  ясно  +21.1  +20.6  97  +26  +26  душно  1011.3  916.4         
06:44 20.08 ЮВ  4 км  дымка  ясно  +20.6  +20.0  96  +25  +25  комфорт    916.4         
06:53 20.08 ЮВ  6 км  дымка  ясно  +20.6  +20.0  96  +25  +25  комфорт  1011.2  916.4         
07:53 20.08   14 км    ясно  +20.0  +19.4  96  +23  +23  комфорт  1011.1  916.1         
08:53 20.08   14 км    ясно  +20.0  +18.9  93  +23  +23  комфорт  1011.1  916.1         
09:07 20.08   3 км  дымка  ясно  +18.9  +18.3  96  +20  +20      916.1         
09:20 20.08 ЮВ  5 км  дымка  ясно  +19.4  +18.3  93  +22  +22  комфорт    916.4         
09:53 20.08   10 км  дымка  ясно  +19.4  +18.3  93  +21  +21  комфорт  1011.4  916.7         
10:53 20.08 СЗ  13 км    ясно  +18.9  +17.8  93  +21  +21  комфорт  1011.9  917.0  +17.8  +22.2     
11:53 20.08   10 км  дымка  ясно  +20.0  +18.9  93  +23  +23  комфорт  1012.0  917.0         
12:53 20.08   16 км    ясно  +23.3  +21.7  91  +32  +33  очень
душно 
1012.8  917.6         
13:53 20.08 В  16 км    ясно  +27.2  +21.7  72  +35  +38  очень
душно 
1012.9  917.9         
14:53 20.08 В  16 км    ясно  +30.6  +20.6  55  +38  +45  очень
душно 
1013.0  918.2         
15:53 20.08 В  16 км    ясно  +31.7  +19.4  48  +37  +44  очень
душно 
1013.4  918.5         
16:53 20.08 В  8
{14} 
16 км    ясно  +32.2  +20.0  49  +39  +40  очень
душно 
1013.5  918.5  +17.8  +32.8     
17:53 20.08 В  9
{13} 
16 км    ясно  +32.8  +18.3  42  +37  +38  очень
душно 
1013.8  918.8         
18:53 20.08 В  9
{13} 
16 км    ясно  +32.2  +19.4  47  +38  +39  очень
душно 
1013.4  918.5         

 

Местоположение метеостанции North Platte Regional Airport: широта 41.1219 долгота -100.6683 высота над уровнем моря 846 м.

В архиве по умолчанию представлена погода в Норт-Платте за последние 1-2 суток. Обновление информации о фактической погоде в базе происходит ежечасно! Архивные данные за месяц целиком и за предыдущие месяцы Вы можете получить, выбрав интересующий диапазон дат из раскрывающегося списка и нажав кнопку "Ввод!".

Внимание! Архив погоды МЕТАР в базе сайта хранится не более 60 дней. Нет смысла пытаться выбрать более раннюю дату.

Внимание! Время в таблицах - всемирное. Для получения местного времени необходимо прибавить поправку, которая в Норт-Платте равна -6 ч.

Ветер - указаны скорость ветра в м/с и направление, откуда дует ветер: С - северный, СВ - северо-восточный, В - восточный, ЮВ - юго-восточный, Ю - южный, ЮЗ - юго-западный, З - западный, СЗ - северо-западный.
Видимость - горизонтальная дальность видимости в метрах или километрах. При видимости от 1 до 10 км при отсутствии осадков обычно наблюдается дымка, при ухудшении видимости до 1 км и менее - туман. В сухую погоду видимость может ухудшаться дымом, пылью или мглою.
Атмосферные явления - указаны явления, наблюдавшиеся в указанный момент времени.
Облачность - указаны через наклонную черту верхняя и нижняя облачность в баллах и высота нижней границы облаков в метрах. Внимание: облачность, как и прочие метеорологические величины в США измеряются автоматическими метеостанциями. Указанные значения в баллах носят условный характер и показывают процент времени, в течение которого, в среднем, лазерный луч высотомера отражался от облаков обратно.
T - Температура воздуха - температура, измеренная на высоте 2 м над землей.
Td - Температура точки росы - температура, при понижении до которой содержащийся в воздухе водяной пар достигнет насыщения.
f - Относительная влажность воздуха - влажноcть воздуха, измеренная на высоте 2 м над землей.
Te - Эффективная температура - температура, которую ощущает одетый по сезону человек в тени. Характеристика душности погоды. При расчете учитывается влияние влажности воздуха и скорости ветра на теплоощущения человека.
Tes - Эффективная температура на солнце - температура, которую ощущает человек, с поправкой на солнечный нагрев. Характеристика знойности погоды. Зависит от высоты солнца над горизонтом, облачности и скорости ветра. Ночью, в пасмурную погоду, а также при ветре 12 м/с и более поправка равна нулю.
P - Атмосферное давление - приведенное к уровню моря атмосферное давление.
Po - Атмосферное давление - измеренное на уровне метеостанции атмосферное давление.
Tmin - Минимальная температура - минимум температуры воздуха на высоте 2 м над землей.
Tmax - Максимальная температура - максимум температуры воздуха на высоте 2 м над землей.
R - Количество осадков - Количество выпавших осадков за 3 или 6 часов, мм.
SD - Снежный покров - Высота снежного покрова, см.